| time (UTC) | temp C | wind direction | speed KPH | gust KPH | rain 1hr cm | rain 24hr cm | rain mn cm | humidity % | barometer mb |
| 20260505194507 | 11 | 18 | 0.0 | 6.4 | 0.20 | 0.61 | 0.61 | 1 | 1007.3 |
| 20260505193003 | 11 | 9 | 1.6 | 3.2 | 0.15 | 0.56 | 0.56 | 1 | 1007.6 |
| 20260505191608 | 11 | 13 | 3.2 | 9.7 | 0.08 | 0.48 | 0.48 | 1 | 1007.7 |
| 20260505184550 | 10 | 5 | 1.6 | 8.0 | 0.00 | 0.41 | 0.41 | 1 | 1007.5 |
| 20260505183109 | 10 | 5 | 4.8 | 8.0 | 0.00 | 0.41 | 0.41 | 1 | 1007.3 |
| 20260505181541 | 10 | 5 | 3.2 | 8.0 | 0.00 | 0.41 | 0.41 | 1 | 1007.5 |
| 20260505180038 | 10 | 351 | 3.2 | 6.4 | 0.00 | 0.41 | 0.41 | 1 | 1007.8 |
| 20260505174537 | 10 | 355 | 3.2 | 8.0 | 0.00 | 0.41 | 0.41 | 1 | 1007.7 |
| 20260505173037 | 10 | 5 | 4.8 | 8.0 | 0.00 | 0.41 | 0.41 | 1 | 1007.5 |
| 20260505171536 | 10 | 16 | 8.0 | 12.9 | 0.00 | 0.41 | 0.41 | 1 | 1007.8 |
| 20260505170022 | 11 | 355 | 8.0 | 12.9 | 0.00 | 0.41 | 0.41 | 1 | 1007.6 |
| 20260505164515 | 12 | 16 | 8.0 | 14.5 | 0.03 | 0.41 | 0.41 | 1 | 1007.7 |
| 20260505163011 | 14 | 234 | 6.4 | 11.3 | 0.03 | 0.41 | 0.41 | 1 | 1007.5 |
| 20260505161506 | 13 | 250 | 3.2 | 12.9 | 0.03 | 0.41 | 0.41 | 1 | 1007.7 |
| 20260505153053 | 13 | 236 | 9.7 | 20.9 | 0.00 | 0.38 | 0.38 | 1 | 1007.8 |
| 20260505151548 | 13 | 229 | 9.7 | 20.9 | 0.00 | 0.38 | 0.38 | 1 | 1007.7 |
| 20260505124506 | 12 | 226 | 12.9 | 19.3 | 0.00 | 0.38 | 0.38 | 1 | 1005.6 |
| 20260505123005 | 12 | 205 | 11.3 | 17.7 | 0.00 | 0.38 | 0.38 | 1 | 1005.8 |
| 20260505121504 | 12 | 221 | 9.7 | 17.7 | 0.00 | 0.38 | 0.38 | 1 | 1005.7 |
| 20260505120117 | 12 | 227 | 12.9 | 22.5 | 0.00 | 0.38 | 0.38 | 1 | 1006.0 |
| 20260505114557 | 12 | 226 | 11.3 | 17.7 | 0.00 | 0.38 | 0.38 | 1 | 1006.0 |
| 20260505113051 | 12 | 215 | 8.0 | 17.7 | 0.00 | 0.38 | 0.38 | 1 | 1005.7 |
| 20260505111547 | 12 | 214 | 9.7 | 16.1 | 0.00 | 0.38 | 0.38 | 1 | 1005.4 |
| 20260505101529 | 12 | 213 | 6.4 | 17.7 | 0.00 | 0.38 | 0.38 | 1 | 1004.2 |
| 20260505100026 | 12 | 199 | 6.4 | 20.9 | 0.03 | 0.38 | 0.38 | 1 | 1003.9 |
| 20260505094520 | 12 | 200 | 11.3 | 22.5 | 0.03 | 0.38 | 0.38 | 1 | 1003.8 |
| 20260505093015 | 12 | 207 | 9.7 | 16.1 | 0.03 | 0.38 | 0.38 | 1 | 1003.1 |
| 20260505091522 | 12 | 195 | 9.7 | 24.1 | 0.08 | 0.38 | 0.38 | 1 | 1003.5 |
| 20260505090013 | 12 | 197 | 9.7 | 22.5 | 0.10 | 0.36 | 0.36 | 1 | 1003.7 |
| 20260505084502 | 12 | 197 | 11.3 | 25.7 | 0.20 | 0.36 | 0.36 | 1 | 1004.1 |
| 20260505083058 | 13 | 199 | 14.5 | 22.5 | 0.25 | 0.36 | 0.36 | 1 | 1005.0 |
| 20260505081555 | 12 | 203 | 9.7 | 16.1 | 0.23 | 0.30 | 0.30 | 1 | 1005.0 |
| 20260505080054 | 12 | 202 | 4.8 | 14.5 | 0.20 | 0.25 | 0.25 | 1 | 1004.7 |
| 20260505074551 | 12 | 209 | 6.4 | 20.9 | 0.10 | 0.15 | 0.15 | 1 | 1005.4 |
| 20260505073058 | 12 | 217 | 9.7 | 14.5 | 0.10 | 0.10 | 0.10 | 1 | 1005.9 |
| 20260505071537 | 12 | 360 | 8.0 | 14.5 | 0.08 | 0.08 | 0.08 | 1 | 1005.4 |
| 20260505070033 | 12 | 267 | 0.0 | 9.7 | 0.05 | 0.05 | 0.05 | 1 | 1005.4 |
| 20260505064539 | 12 | 278 | 3.2 | 12.9 | 0.05 | 0.05 | 0.05 | 1 | 1006.0 |
| 20260505063024 | 13 | 306 | 6.4 | 16.1 | 0.00 | 0.00 | 0.00 | 1 | 1005.6 |
| 20260505061530 | 15 | 234 | 4.8 | 14.5 | 0.00 | 0.00 | 0.00 | 10 | 1005.5 |
| 20260505060015 | 17 | 300 | 12.9 | 22.5 | 0.00 | 0.00 | 0.00 | 54 | 1005.2 |
| 20260505054511 | 18 | 318 | 8.0 | 16.1 | 0.00 | 0.00 | 0.00 | 57 | 1004.5 |
| 20260505053007 | 18 | 307 | 8.0 | 20.9 | 0.00 | 0.00 | 0.00 | 57 | 1003.9 |
| 20260505051506 | 18 | 213 | 14.5 | 25.7 | 0.00 | 0.00 | 0.00 | 57 | 1002.7 |
| 20260505041600 | 18 | 204 | 11.3 | 17.7 | 0.00 | 0.00 | 0.00 | 57 | 1002.2 |
| 20260505040056 | 18 | 205 | 11.3 | 22.5 | 0.00 | 0.00 | 0.00 | 57 | 1002.5 |
| 20260505034550 | 18 | 206 | 11.3 | 20.9 | 0.00 | 0.00 | 0.00 | 57 | 1002.6 |
| 20260505033050 | 18 | 219 | 12.9 | 19.3 | 0.00 | 0.00 | 0.00 | 57 | 1002.7 |
| 20260505031604 | 18 | 202 | 9.7 | 17.7 | 0.00 | 0.00 | 0.00 | 57 | 1002.9 |
| 20260505030048 | 18 | 213 | 9.7 | 19.3 | 0.00 | 0.00 | 0.00 | 57 | 1002.9 |
| 20260505024548 | 18 | 208 | 11.3 | 19.3 | 0.00 | 0.00 | 0.00 | 57 | 1002.8 |
| 20260505023052 | 19 | 360 | 11.3 | 17.7 | 0.00 | 0.00 | 0.00 | 56 | 1002.9 |
| 20260505021547 | 19 | 195 | 9.7 | 16.1 | 0.00 | 0.00 | 0.00 | 56 | 1002.8 |
| 20260505020046 | 19 | 196 | 9.7 | 17.7 | 0.00 | 0.00 | 0.00 | 55 | 1002.6 |
| 20260505014546 | 19 | 360 | 8.0 | 12.9 | 0.00 | 0.00 | 0.00 | 56 | 1002.5 |
| 20260505013052 | 19 | 206 | 6.4 | 12.9 | 0.00 | 0.00 | 0.00 | 56 | 1002.5 |
| 20260505011543 | 19 | 202 | 6.4 | 12.9 | 0.00 | 0.00 | 0.00 | 56 | 1002.4 |
| 20260505010044 | 20 | 213 | 8.0 | 16.1 | 0.00 | 0.00 | 0.00 | 54 | 1002.4 |
| 20260505004549 | 20 | 225 | 9.7 | 16.1 | 0.00 | 0.00 | 0.00 | 54 | 1002.3 |
| 20260505003043 | 20 | 189 | 9.7 | 16.1 | 0.00 | 0.00 | 0.00 | 55 | 1002.1 |
| 20260505001543 | 20 | 360 | 11.3 | 17.7 | 0.00 | 0.00 | 0.00 | 55 | 1002.0 |
| 20260505000057 | 20 | 200 | 12.9 | 25.7 | 0.00 | 0.00 | 0.00 | 55 | 1002.1 |
| 20260504234540 | 20 | 203 | 11.3 | 20.9 | 0.00 | 0.00 | 0.00 | 55 | 1002.3 |
| 20260504233040 | 20 | 194 | 11.3 | 20.9 | 0.00 | 0.00 | 0.00 | 55 | 1002.2 |
| 20260504231536 | 20 | 187 | 11.3 | 24.1 | 0.00 | 0.00 | 0.00 | 56 | 1002.8 |
| 20260504230038 | 20 | 205 | 9.7 | 24.1 | 0.00 | 0.00 | 0.00 | 57 | 1003.2 |
| 20260504224534 | 21 | 214 | 14.5 | 22.5 | 0.00 | 0.00 | 0.00 | 53 | 1003.4 |
| 20260504223033 | 21 | 205 | 14.5 | 25.7 | 0.00 | 0.00 | 0.00 | 53 | 1003.4 |
| 20260504221540 | 21 | 213 | 14.5 | 33.8 | 0.00 | 0.00 | 0.00 | 53 | 1003.6 |
| 20260504220032 | 22 | 211 | 16.1 | 37.0 | 0.00 | 0.00 | 0.00 | 49 | 1003.6 |
| 20260504214534 | 22 | 201 | 19.3 | 33.8 | 0.00 | 0.05 | 0.00 | 46 | 1003.5 |
| 20260504213032 | 23 | 227 | 20.9 | 32.2 | 0.00 | 0.05 | 0.00 | 42 | 1003.0 |
| 20260504211528 | 23 | 219 | 17.7 | 29.0 | 0.00 | 0.05 | 0.00 | 43 | 1003.0 |
| 20260504210025 | 22 | 219 | 24.1 | 41.8 | 0.00 | 0.05 | 0.00 | 44 | 1003.4 |
| 20260504204525 | 22 | 205 | 16.1 | 25.7 | 0.00 | 0.08 | 0.00 | 47 | 1003.5 |
| 20260504203025 | 22 | 222 | 22.5 | 41.8 | 0.00 | 0.08 | 0.00 | 48 | 1003.8 |
| 20260504201522 | 22 | 231 | 19.3 | 41.8 | 0.00 | 0.08 | 0.00 | 49 | 1003.8 |
| 20260504200021 | 22 | 245 | 25.7 | 41.8 | 0.00 | 0.08 | 0.00 | 48 | 1004.2 |